Weather History for Fairfield, IL

Change the Weather History Date:

Sunday, September 1, 2013

  Actual Average (KMVN) Record (KMVN)
Temperature  
Mean Temperature 79 °F -  
Max Temperature 89 °F 84 °F 100 °F (2011)
Min Temperature 69 °F 60 °F 55 °F (1999)
Cooling Degree Days 14    
Growing Degree Days 29 (Base 50)    
Moisture  
Dew Point 67 °F    
Average Humidity 77    
Maximum Humidity 83    
Minimum Humidity 54    
Precipitation  
Precipitation 0.09 in - - ()
Sea Level Pressure  
Sea Level Pressure 29.81 in    
Wind  
Wind Speed 6 mph (SSW)    
Max Wind Speed 23 mph    
Max Gust Speed 46 mph    
Visibility 9 miles    
Events Rain , Thunderstorm    
Averages and records for this station are not official NWS values.
T = Trace of Precipitation, MM = Missing Value Source: NWS Daily Summary

Daily Weather History Graph

Daily Weather History Graph

Search for Another Location

Airport:

Trip Planner

Search our weather history database for the weather conditions in past years. The results will help you decide how hot, cold, wet, or windy it might be!

Date:

Astronomy

Sep. 01, 2013 Rise Set
Actual Time 6:23 AM CDT 7:23 PM CDT
Civil Twilight 5:56 AM CDT 7:50 PM CDT
Nautical Twilight 5:24 AM CDT 8:22 PM CDT
Astronomical Twilight 4:50 AM CDT 8:55 PM CDT
Moon 2:46 AM CDT (9/1) 4:58 PM CDT (9/1)
Length of Visible Light 13h 53m
Length of Day
12h 59m
Waning Crescent, 13% of the Moon is Illuminated
Sep 1
Waning Crescent
Sep 5
New
Sep 12
First Quarter
Sep 19
Full
Sep 26
Last Quarter

Hourly Weather History & Observations

Time (CDT) Temp. Heat Index Dew Point Humidity Pressure Visibility Wind Dir Wind Speed Gust Speed Precip Events Conditions
12:15 AM 71.6 °F - 66.2 °F 83% 29.79 in 10.0 mi Calm Calm - N/A Thunderstorm Thunderstorm
12:35 AM 71.6 °F - 66.2 °F 83% 29.79 in 10.0 mi Calm Calm - N/A   Mostly Cloudy
12:55 AM 71.6 °F - 66.2 °F 83% 29.79 in 10.0 mi NNE 3.5 mph - N/A   Mostly Cloudy
1:15 AM 71.6 °F - 66.2 °F 83% 29.80 in 10.0 mi NE 3.5 mph - N/A   Overcast
1:35 AM 71.6 °F - 66.2 °F 83% 29.80 in 10.0 mi East 4.6 mph - N/A   Mostly Cloudy
1:55 AM 71.6 °F - 66.2 °F 83% 29.80 in 10.0 mi East 5.8 mph - N/A   Mostly Cloudy
2:15 AM 71.6 °F - 66.2 °F 83% 29.80 in 10.0 mi East 12.7 mph 18.4 mph N/A   Scattered Clouds
2:35 AM 71.6 °F - 66.2 °F 83% 29.81 in 10.0 mi ESE 11.5 mph - N/A   Clear
2:55 AM 71.6 °F - 66.2 °F 83% 29.81 in 10.0 mi SE 12.7 mph 21.9 mph N/A   Clear
3:15 AM 71.6 °F - 64.4 °F 78% 29.80 in 10.0 mi SSE 10.4 mph 18.4 mph N/A   Scattered Clouds
3:35 AM 71.6 °F - 64.4 °F 78% 29.80 in 10.0 mi SSE 6.9 mph - N/A   Scattered Clouds
3:55 AM 71.6 °F - 64.4 °F 78% 29.80 in 10.0 mi SSE 9.2 mph - N/A   Mostly Cloudy
4:15 AM 71.6 °F - 64.4 °F 78% 29.79 in 10.0 mi South 9.2 mph - N/A   Scattered Clouds
4:35 AM 69.8 °F - 64.4 °F 83% 29.80 in 10.0 mi South 8.1 mph - N/A   Clear
4:55 AM 69.8 °F - 64.4 °F 83% 29.80 in 10.0 mi South 8.1 mph - N/A   Clear
5:15 AM 69.8 °F - 64.4 °F 83% 29.80 in 10.0 mi South 6.9 mph - N/A   Clear
5:35 AM 69.8 °F - 64.4 °F 83% 29.79 in 10.0 mi South 5.8 mph - N/A   Clear
5:55 AM 69.8 °F - 64.4 °F 83% 29.79 in 10.0 mi SSW 5.8 mph - N/A   Clear
6:15 AM 69.8 °F - 64.4 °F 83% 29.79 in 10.0 mi SSW 6.9 mph - N/A   Clear
6:35 AM 69.8 °F - 64.4 °F 83% 29.80 in 10.0 mi SSW 4.6 mph - N/A   Clear
6:55 AM 69.8 °F - 64.4 °F 83% 29.80 in 10.0 mi SSW 4.6 mph - N/A   Clear
7:15 AM 69.8 °F - 64.4 °F 83% 29.79 in 10.0 mi SSW 5.8 mph - N/A   Clear
7:35 AM 71.6 °F - 66.2 °F 83% 29.79 in 10.0 mi SSW 5.8 mph - N/A   Clear
7:55 AM 71.6 °F - 66.2 °F 83% 29.80 in 10.0 mi South 6.9 mph - N/A   Clear
8:15 AM 73.4 °F - 66.2 °F 78% 29.81 in 10.0 mi South 8.1 mph - N/A   Clear
8:35 AM 75.2 °F - 68.0 °F 78% 29.81 in 10.0 mi SSW 6.9 mph - N/A   Clear
8:55 AM 77.0 °F - 69.8 °F 78% 29.81 in 10.0 mi SSW 9.2 mph - N/A   Clear
9:15 AM 78.8 °F - 69.8 °F 74% 29.81 in 10.0 mi SSW 6.9 mph - N/A   Clear
9:35 AM 78.8 °F - 71.6 °F 78% 29.81 in 10.0 mi SSW 8.1 mph - N/A   Clear
9:55 AM 80.6 °F 84.6 °F 71.6 °F 74% 29.81 in 10.0 mi SSW 8.1 mph - N/A   Clear
10:15 AM 82.4 °F 87.2 °F 71.6 °F 70% 29.81 in 10.0 mi WSW 10.4 mph - N/A   Clear
10:35 AM 82.4 °F 88.2 °F 73.4 °F 74% 29.81 in 10.0 mi WSW 11.5 mph 16.1 mph N/A   Clear
10:55 AM 84.2 °F 90.9 °F 73.4 °F 70% 29.81 in 10.0 mi SW 10.4 mph - N/A   Clear
11:15 AM 84.2 °F 90.9 °F 73.4 °F 70% 29.82 in 10.0 mi SW 9.2 mph - N/A   Clear
11:35 AM 86.0 °F 93.4 °F 73.4 °F 66% 29.83 in 10.0 mi WSW 9.2 mph - N/A   Clear
11:55 AM 86.0 °F 93.4 °F 73.4 °F 66% 29.83 in 10.0 mi WSW 11.5 mph 16.1 mph N/A   Scattered Clouds
12:15 PM 87.8 °F 95.6 °F 73.4 °F 62% 29.83 in 10.0 mi WSW 6.9 mph - N/A   Scattered Clouds
12:35 PM 87.8 °F 95.6 °F 73.4 °F 62% 29.82 in 10.0 mi SW 10.4 mph - N/A   Clear
12:55 PM 87.8 °F 95.6 °F 73.4 °F 62% 29.81 in 10.0 mi WSW 9.2 mph - N/A   Clear
1:15 PM 87.8 °F 97.6 °F 75.2 °F 66% 29.80 in 10.0 mi West 5.8 mph - N/A   Scattered Clouds
1:35 PM 89.6 °F 99.8 °F 75.2 °F 62% 29.80 in 10.0 mi SW 6.9 mph - N/A   Scattered Clouds
1:55 PM 89.6 °F 98.2 °F 73.4 °F 59% 29.79 in 10.0 mi SW 5.8 mph - N/A   Scattered Clouds
2:15 PM 89.6 °F 98.2 °F 73.4 °F 59% 29.79 in 10.0 mi SW 9.2 mph - N/A   Clear
2:35 PM 89.6 °F 98.2 °F 73.4 °F 59% 29.78 in 10.0 mi SW 8.1 mph - N/A   Clear
2:55 PM 89.6 °F 98.2 °F 73.4 °F 59% 29.77 in 10.0 mi SW 6.9 mph - N/A   Clear
3:15 PM 82.4 °F 83.9 °F 64.4 °F 54% 29.78 in - North 23.0 mph 46.0 mph N/A Thunderstorm Thunderstorm
3:35 PM 75.2 °F - 64.4 °F 69% 29.83 in 0.2 mi ENE 4.6 mph - N/A Rain , Thunderstorm Heavy Thunderstorms and Rain
3:55 PM 73.4 °F - 66.2 °F 78% 29.79 in 10.0 mi SSE 6.9 mph - N/A Rain , Thunderstorm Rain
4:15 PM 73.4 °F - 66.2 °F 78% 29.79 in 10.0 mi West 3.5 mph - 0.01 in Rain , Thunderstorm Light Thunderstorms and Rain
4:35 PM 73.4 °F - 66.2 °F 78% 29.81 in 10.0 mi West 6.9 mph - 0.01 in Rain , Thunderstorm Light Thunderstorms and Rain
4:55 PM 73.4 °F - 66.2 °F 78% 29.82 in 10.0 mi West 11.5 mph 29.9 mph 0.04 in Rain , Thunderstorm Rain
5:15 PM 71.6 °F - 64.4 °F 78% 29.83 in 10.0 mi NNW 5.8 mph - 0.01 in Rain , Thunderstorm Light Thunderstorms and Rain
5:35 PM 71.6 °F - 64.4 °F 78% 29.80 in 10.0 mi North 4.6 mph - 0.04 in Rain , Thunderstorm Light Thunderstorms and Rain
5:55 PM 71.6 °F - 64.4 °F 78% 29.80 in 10.0 mi ESE 6.9 mph - 0.05 in Rain Light Rain
6:15 PM 71.6 °F - 64.4 °F 78% 29.79 in 10.0 mi NNE 3.5 mph - N/A   Clear
6:35 PM 71.6 °F - 64.4 °F 78% 29.80 in 10.0 mi ENE 3.5 mph - N/A   Clear
6:55 PM 71.6 °F - 66.2 °F 83% 29.80 in 10.0 mi SSE 6.9 mph - N/A   Clear
7:15 PM 71.6 °F - 66.2 °F 83% 29.83 in 10.0 mi WSW 5.8 mph - N/A   Clear
7:35 PM 71.6 °F - 66.2 °F 83% 29.83 in 10.0 mi WSW 6.9 mph - N/A   Clear
7:55 PM 71.6 °F - 66.2 °F 83% 29.83 in 10.0 mi WSW 4.6 mph - N/A   Clear
8:15 PM 71.6 °F - 66.2 °F 83% 29.83 in 7.0 mi Calm Calm - N/A   Clear
8:35 PM 71.6 °F - 66.2 °F 83% 29.84 in 7.0 mi Calm Calm - N/A   Clear
8:55 PM 71.6 °F - 66.2 °F 83% 29.84 in 7.0 mi Calm Calm - N/A   Clear
9:15 PM 69.8 °F - 64.4 °F 83% 29.84 in 5.0 mi Calm Calm - N/A   Haze
9:35 PM 71.6 °F - 66.2 °F 83% 29.85 in 10.0 mi Calm Calm - N/A   Clear
9:55 PM 69.8 °F - 64.4 °F 83% 29.84 in 7.0 mi Calm Calm - N/A   Clear
10:15 PM 69.8 °F - 64.4 °F 83% 29.83 in 4.0 mi Calm Calm - N/A   Haze
10:35 PM 69.8 °F - 64.4 °F 83% 29.84 in 4.0 mi Calm Calm - N/A   Haze
10:55 PM 69.8 °F - 64.4 °F 83% 29.83 in 7.0 mi Calm Calm - N/A   Clear
11:15 PM 69.8 °F - 64.4 °F 83% 29.84 in 4.0 mi Calm Calm - N/A   Haze
11:35 PM 69.8 °F - 64.4 °F 83% 29.84 in 4.0 mi Calm Calm - N/A   Haze
11:55 PM 69.8 °F - 64.4 °F 83% 29.84 in 5.0 mi Calm Calm - N/A   Haze